[[{"header":{"parameterUnit":"m.s-1","parameterCategory":1,"la1":30.2991,"la2":30.254,"lo1":-89.0895,"lo2":-89.0444,"dy":0.0017,"dx":0.0017,"nx":28,"ny":28,"refTime":"2025-06-18T09:00:00:Z","depth":0,"parameterNumber":2,"parameterNumberName":"U-component_of_WINDS"},"data":[0,0,0,0,0,0,0,0,0,0,0,0,0,0,0,0,0,0,0,0,0,0,0,0,0,0,0,0,0,0,0,0,0,0,0,0,0,0,0,0,0,0,0,0,0,0,0,0,0,0,0,0,0,0,0,0,0,0,2.7532,2.7533,0,2.7607,2.7607,2.7608,2.7571,2.7569,2.7567,2.7565,2.7642,2.7645,2.7649,0,0,0,0,0,0,0,0,0,0,0,0,0,2.7356,2.736,2.7532,2.7533,2.7534,2.7606,2.7607,2.7608,2.7571,2.7569,2.7566,2.7564,2.764,2.7645,2.765,0,0,0,0,0,0,0,0,0,0,0,0,0,2.7432,2.7361,2.7532,2.7524,2.7524,2.7606,2.7607,2.7609,2.7572,2.7569,2.7566,2.7563,2.7639,2.7645,2.765,2.7745,0,0,2.7668,2.7671,0,0,0,0,0,0,0,0,2.7428,2.7438,2.7524,2.7525,2.7525,2.7576,2.7573,2.7654,2.7572,2.7554,2.7565,2.7561,2.7622,2.7629,2.765,2.7748,2.7752,2.7669,2.7672,2.7675,2.7676,0,0,0,0,0,0,0,2.7422,2.7435,2.7561,2.7525,2.7526,2.7516,2.7524,2.7589,2.7604,2.7555,2.7552,2.7562,2.7622,2.7644,2.7651,2.7753,2.7668,2.7674,2.7677,2.7679,2.7929,2.7932,0,0,0,0,0,0,2.7418,2.7431,2.7559,2.7564,2.7468,2.7522,2.753,2.7563,2.7603,2.7606,2.7564,2.756,2.7636,2.7645,2.7654,2.7764,2.7674,2.768,2.7683,2.7926,2.793,2.7933,0,0,0,0,0,0,2.7414,2.7429,2.7556,2.7497,2.7512,2.7528,2.7565,2.7566,2.7588,2.761,2.7612,2.7584,2.7634,2.7646,2.7722,2.7766,2.7683,2.7688,2.7922,2.7927,2.7931,2.7987,0,0,0,0,0,0,2.7409,2.7428,2.7465,2.7498,2.7515,2.7623,2.7568,2.7569,2.7598,2.7593,2.7629,2.7632,2.7632,2.7713,2.7727,2.7773,2.7692,2.7918,2.7924,2.793,2.7981,2.7993,2.8003,0,0,0,0,0,2.7403,2.7478,2.7467,2.7483,2.7561,2.7626,2.7636,2.7634,2.7602,2.7638,2.7651,2.7631,2.776,2.7721,2.7737,2.7785,2.7915,2.7923,2.7929,2.7976,2.7991,2.8003,0,0,0,0,0,0,2.7451,2.7483,2.747,2.7559,2.759,2.7619,2.7665,2.765,2.7691,2.7685,2.7682,2.769,2.7768,2.7785,2.7741,2.7877,2.7832,2.7843,2.7863,2.7877,2.7887,2.7881,2.7697,0,0,0,0,0,2.7472,2.7522,2.7547,2.7623,2.7639,2.7649,2.7678,2.7673,2.7706,2.7719,2.7738,2.777,2.7817,2.7848,2.7893,2.7984,2.799,2.8025,2.8036,2.8045,2.8053,2.8099,2.8114,2.7956,2.7956,2.7956,0,0,2.7516,2.7539,2.7571,2.7633,2.7656,2.7707,2.7661,2.7717,2.7754,2.7727,2.7799,2.7814,2.785,2.7933,2.797,2.7949,2.8098,2.8054,2.8061,2.8064,2.8108,2.8123,2.8136,2.7961,2.796,2.7959,0,0,2.762,2.7645,2.7708,2.7733,2.7768,2.7775,2.779,2.7822,2.783,2.7903,2.7882,2.7927,2.8009,2.8034,2.8057,2.817,2.8151,2.8185,2.8241,2.8286,2.8299,2.8309,2.8347,2.836,2.8193,2.8194,2.8194,0,2.767,2.7746,2.7743,2.78,2.7827,2.7804,2.7868,2.7892,2.7941,2.7959,2.7935,2.8035,2.8058,2.8145,2.8172,2.8193,2.8208,2.8179,2.8297,2.8308,2.8318,2.8353,2.8368,2.8197,2.8197,2.8196,2.8196,0,2.7803,2.7856,2.7904,2.795,2.7982,2.8043,2.8048,2.8081,2.8074,2.8083,2.8155,2.8181,2.8229,2.825,2.8245,2.8336,2.8321,2.8297,2.8252,2.8337,2.837,2.8383,2.8202,2.8201,2.82,2.8199,0,0,2.794,2.7983,2.8,2.802,2.8057,2.8097,2.8156,2.8203,2.823,2.8264,2.8312,2.8381,2.8358,2.8385,2.8382,2.8422,2.8505,2.8393,2.8393,2.841,2.8603,2.8619,2.8635,2.8494,2.8497,2.8499,2.8599,0,2.8045,2.8147,2.8145,2.8239,2.8286,2.8265,2.8316,2.8344,2.8353,2.8394,2.8405,2.8452,2.842,2.8436,2.8475,2.8487,2.8543,2.848,2.8536,2.8538,2.8525,2.8652,2.867,2.8763,2.8612,2.8615,2.8616,0,2.8181,2.8218,2.8316,2.8344,2.8364,2.841,2.845,2.8491,2.8521,2.8525,2.8554,2.8544,2.8602,2.8557,2.8636,2.8593,2.8616,2.8625,2.8629,2.8632,2.8581,2.8656,2.8793,2.8806,2.8637,2.8635,2.8634,0,2.8266,2.8342,2.8409,2.8427,2.8462,2.8494,2.851,2.8538,2.8565,2.8601,2.8618,2.8661,2.8684,2.8717,2.8719,2.8686,2.8797,2.8753,2.88,2.88,2.8823,2.8821,2.8963,2.8843,2.8842,2.8842,2.8842,0,2.8382,2.8442,2.8448,2.8489,2.8555,2.8553,2.8618,2.8632,2.8656,2.8699,2.8684,2.8724,2.8725,2.8766,2.8768,2.8831,2.8842,2.8846,2.8845,2.8845,2.8844,2.8859,2.8851,2.8846,2.8845,2.8844,2.8844,0,2.8488,2.8495,2.8566,2.8593,2.8601,2.8648,2.8671,2.8709,2.8717,2.8771,2.8784,2.8796,2.8843,2.8848,2.8904,2.8905,2.898,2.8974,2.8969,2.8967,2.9013,2.9007,2.9166,2.9186,2.9056,2.9057,2.9058,0,2.856,2.8605,2.8636,2.8663,2.8681,2.8725,2.8752,2.8752,2.878,2.8817,2.8851,2.8897,2.8933,2.9009,2.9022,2.9064,2.9057,2.911,2.9063,2.9061,2.9054,2.905,2.9053,2.9118,2.9119,2.9121,2.9122,0,2.8685,2.8686,2.8725,2.8766,2.8798,2.883,2.886,2.8883,2.8886,2.8919,2.8966,2.8994,2.905,2.9094,2.9135,2.915,2.9136,2.9136,2.9149,2.9148,2.9142,2.9143,2.8991,2.9132,2.9131,2.913,2.913,2.9129,2.8774,2.8812,2.8839,2.8883,2.8905,2.8933,2.897,2.8982,2.9021,2.9065,2.9063,2.9115,2.9142,2.9195,2.9214,2.9253,2.9235,2.9255,2.9259,2.9263,2.9266,2.9138,2.9261,2.9261,2.9261,2.926,2.926,0,2.8896,2.8912,2.8953,2.8994,2.9028,2.9012,2.9043,2.9072,2.9118,2.9145,2.918,2.9233,2.9276,2.9292,2.9334,2.9362,2.9356,2.9373,2.9369,2.9372,2.9281,2.9264,2.9376,2.9376,2.9376,2.9376,2.9376,2.9376,2.8963,2.9026,2.9029,2.9102,2.9118,2.9168,2.9187,2.9211,2.9232,2.9292,2.9327,2.9337,2.9359,2.9402,2.944,2.9443,2.9458,2.9477,2.9477,2.9391,2.9379,2.9368,2.9352,2.9481,2.9481,2.9565,2.9565,2.9566]},{"header":{"parameterUnit":"m.s-1","parameterCategory":1,"la1":30.2991,"la2":30.254,"lo1":-89.0895,"lo2":-89.0444,"dy":0.0017,"dx":0.0017,"nx":28,"ny":28,"refTime":"2025-06-18T09:00:00:Z","depth":0,"parameterNumber":3,"parameterNumberName":"V-component_of_WINDS"},"data":[0,0,0,0,0,0,0,0,0,0,0,0,0,0,0,0,0,0,0,0,0,0,0,0,0,0,0,0,0,0,0,0,0,0,0,0,0,0,0,0,0,0,0,0,0,0,0,0,0,0,0,0,0,0,0,0,0,0,2.1216,2.1216,0,2.1251,2.1252,2.1252,2.1213,2.1212,2.121,2.1209,2.1246,2.1248,2.1251,0,0,0,0,0,0,0,0,0,0,0,0,0,2.1114,2.1116,2.1216,2.1216,2.1217,2.1251,2.1252,2.1252,2.1214,2.1212,2.121,2.1208,2.1245,2.1248,2.1251,0,0,0,0,0,0,0,0,0,0,0,0,0,2.1155,2.1117,2.1216,2.1202,2.1201,2.1251,2.1252,2.1252,2.1214,2.1212,2.1209,2.1207,2.1244,2.1248,2.1251,2.1318,0,0,2.1262,2.1264,0,0,0,0,0,0,0,0,2.1153,2.1159,2.1203,2.1203,2.1202,2.1226,2.1229,2.1274,2.1214,2.1209,2.1209,2.1206,2.1241,2.1245,2.1256,2.1319,2.1321,2.1262,2.1265,2.1266,2.1267,0,0,0,0,0,0,0,2.115,2.1157,2.123,2.1204,2.1203,2.1193,2.1197,2.1238,2.1237,2.1209,2.1207,2.1211,2.124,2.1253,2.1257,2.1321,2.1262,2.1265,2.1268,2.1269,2.1438,2.144,0,0,0,0,0,0,2.1149,2.1155,2.1229,2.1231,2.1171,2.1197,2.1201,2.122,2.1236,2.1237,2.1213,2.1209,2.1248,2.1253,2.1258,2.1335,2.1266,2.1269,2.1271,2.1436,2.1438,2.1441,0,0,0,0,0,0,2.1147,2.1156,2.1227,2.1192,2.1201,2.1201,2.1223,2.1222,2.1235,2.1239,2.1239,2.1226,2.1246,2.1253,2.1302,2.1336,2.1271,2.1274,2.1433,2.1436,2.144,2.1491,0,0,0,0,0,0,2.1144,2.1155,2.1181,2.1193,2.1203,2.1272,2.1225,2.1224,2.1241,2.1236,2.1252,2.1252,2.1245,2.1297,2.1306,2.134,2.1277,2.143,2.1434,2.1439,2.1486,2.1496,2.1504,0,0,0,0,0,2.1141,2.1195,2.1182,2.1191,2.1235,2.1274,2.1279,2.127,2.1244,2.1269,2.1272,2.1252,2.1331,2.1303,2.1312,2.1347,2.1428,2.1433,2.1438,2.1482,2.1494,2.1504,0,0,0,0,0,0,2.1187,2.1196,2.1183,2.1242,2.1257,2.1267,2.1299,2.1283,2.1306,2.1301,2.1288,2.1292,2.1344,2.1351,2.1319,2.1411,2.1375,2.1382,2.1405,2.1416,2.1425,2.1422,2.128,0,0,0,0,0,2.1204,2.1235,2.1241,2.1293,2.1302,2.1299,2.1316,2.1307,2.1322,2.1329,2.1335,2.1351,2.1379,2.1398,2.1424,2.1487,2.1489,2.1515,2.1524,2.1531,2.1538,2.157,2.1581,2.1458,2.1458,2.1458,0,0,2.1241,2.1249,2.127,2.1303,2.1314,2.1346,2.1305,2.1341,2.1364,2.1334,2.1381,2.1386,2.1402,2.1458,2.1483,2.1465,2.1572,2.1538,2.1544,2.1547,2.1576,2.1588,2.1598,2.1462,2.1461,2.1461,0,0,2.1322,2.1332,2.1376,2.1387,2.1403,2.1401,2.1411,2.1423,2.1424,2.1471,2.1448,2.1476,2.1525,2.1537,2.155,2.1633,2.1615,2.1642,2.1689,2.172,2.1729,2.1738,2.1766,2.1777,2.1649,2.1649,2.1649,0,2.1365,2.1412,2.14,2.1437,2.1452,2.1425,2.1468,2.148,2.1504,2.1515,2.1494,2.1554,2.1563,2.162,2.1641,2.1652,2.1663,2.1641,2.1729,2.1737,2.1745,2.1772,2.1783,2.1652,2.1652,2.1651,2.1651,0,2.1463,2.1496,2.1529,2.1552,2.1571,2.1611,2.1604,2.1624,2.1613,2.1613,2.1659,2.1669,2.1696,2.1709,2.1699,2.1764,2.1752,2.1731,2.1694,2.176,2.1785,2.1795,2.1657,2.1655,2.1655,2.1654,0,0,2.1577,2.1591,2.1603,2.1612,2.1627,2.1652,2.169,2.1716,2.1733,2.175,2.1781,2.1822,2.1801,2.1815,2.1806,2.1834,2.1897,2.1808,2.1808,2.1823,2.1968,2.1983,2.1996,2.1885,2.1887,2.1888,2.1966,0,2.1658,2.1724,2.1713,2.1776,2.1806,2.178,2.1812,2.1825,2.1825,2.1849,2.1849,2.1878,2.1849,2.1857,2.1883,2.1884,2.1926,2.1878,2.1913,2.1914,2.1909,2.2009,2.2027,2.2099,2.1976,2.1977,2.1979,0,2.1762,2.1781,2.1847,2.1855,2.1867,2.1897,2.1918,2.1943,2.1955,2.1953,2.1968,2.1954,2.199,2.1953,2.2003,2.1971,2.1984,2.1987,2.1989,2.1992,2.195,2.2014,2.2122,2.2133,2.1994,2.1993,2.1992,0,2.1837,2.188,2.1924,2.1933,2.1944,2.1965,2.197,2.1981,2.1996,2.2015,2.2024,2.2047,2.206,2.2078,2.2069,2.2043,2.212,2.2083,2.2119,2.2119,2.2137,2.2136,2.2248,2.2146,2.2146,2.2146,2.2146,0,2.1928,2.1969,2.1957,2.1985,2.2029,2.2016,2.2061,2.2063,2.2072,2.2099,2.2078,2.2104,2.2091,2.2116,2.211,2.2151,2.2157,2.2156,2.2154,2.2158,2.2158,2.2166,2.2161,2.2149,2.2148,2.2148,2.2147,0,2.2019,2.2013,2.206,2.2065,2.2068,2.21,2.2105,2.213,2.2128,2.2162,2.2169,2.2165,2.2193,2.2186,2.2216,2.2212,2.2264,2.2256,2.226,2.2257,2.2294,2.229,2.2415,2.243,2.232,2.2321,2.2321,0,2.2078,2.2109,2.2117,2.2133,2.214,2.2166,2.2181,2.2169,2.2185,2.2201,2.2224,2.2249,2.2269,2.2314,2.2313,2.2336,2.2328,2.237,2.2331,2.2333,2.2327,2.2325,2.2327,2.2378,2.2379,2.238,2.2381,0,2.2182,2.2177,2.2199,2.222,2.2238,2.2254,2.2268,2.2282,2.227,2.2289,2.2317,2.2332,2.2362,2.2387,2.2407,2.2412,2.2395,2.2393,2.2402,2.2407,2.2407,2.2406,2.228,2.239,2.2389,2.2389,2.2388,2.2388,2.2258,2.2283,2.2293,2.2317,2.2326,2.2339,2.2362,2.2362,2.2384,2.2407,2.2398,2.2429,2.2439,2.2464,2.2472,2.2496,2.248,2.2494,2.2497,2.2501,2.2505,2.2403,2.2499,2.2499,2.2499,2.2499,2.2498,0,2.236,2.2364,2.2387,2.2406,2.2425,2.2406,2.242,2.2437,2.2464,2.2475,2.2494,2.2524,2.2548,2.2549,2.2571,2.2589,2.2582,2.2596,2.2594,2.2595,2.2518,2.2507,2.2601,2.2601,2.2601,2.2601,2.2601,2.2601,2.2415,2.2456,2.2452,2.2497,2.25,2.253,2.2539,2.2551,2.2559,2.2593,2.2613,2.2613,2.2619,2.2641,2.2661,2.2661,2.2669,2.2686,2.2683,2.2611,2.2601,2.2591,2.2581,2.2688,2.2689,2.2757,2.2758,2.2759]}]]